1st Responders/1st Detectors/Storm Spotters Weather Summary for Scott County, KY

Forecast Maps


Reg. NEXRAD Animation


National Fire Danger: Day 1 & 2 Map

Current NWS Watch/Warnings

SPC Convective Day 1 Outlook


Day 2 Outlook

(Click images to enlarge|Page will refresh every 5 minutes)
UK Ag. Weather Center Desktop Severe Weather Service[HERE]
Scott County, KY Hazardous Weather Outlook Webcast
(9 AM to 9 PM Mon-Fri)
[Fast]
[Dial-up]


UKAWC 1st Detectors/1st Responders Precision Weather Forecast For SCOTT County, Kentucky
(based on the NWS County Digital Forecast)

ISSUED AT 17:00 UTC ON FRIDAY MAR 22 2019
DAY FRIDAY
EDT 3HR 2P 3P 4P 5P 6P 7P
MAX/MIN -- -- -- -- -- 52°
TEMP 50° 50° 49° 49° 49° 47°
SKY COVER 53% 48% 44% 40% 33% 27%
Clouds
DEW PT 34° 32° 31° 29° 27° 27°
RH 53% 49% 47% 45% 43% 47%
POP 12HR -- -- -- -- -- --
RAIN/SNOW (liq.equ) 0.00in -- -- -- -- --
SNOWFALL 0in -- -- -- -- --
WIND SPEED(MPH) 16 16 16 15 15 13
WIND Gust(MPH) 30 29 29 24 23 18
WIND DIR NW NW NW NW NW NW
DEW -- -- -- -- -- --
HeatIndex 50 50 49 49 49 47
Rain Showers -- -- -- -- -- --
WIND CHILL -- -- -- -- -- --
SPRAY COND
DRY COND
LIVESTOCK COLDSTRESS



DAY SATURDAY SUNDAY MONDAY TUESDAY WEDNESDAY THURSDAY
EDT 6HR 8P 9P 10P 11P MIDN 1A 2A 3A 4A 5A 6A 7A 8A 9A 10A 11A NOON 1P 2P 3P 4P 5P 6P 7P 8P 9P 10P 11P MIDN 1A 2A 5A 8A 11A 2P 5P 8P 2A 8A 2P 8P 2A 8A 2P 8P 2A 8A 2P 8P 2A 8A 2P 8P
MAX/MIN -- -- -- -- -- -- -- -- -- -- -- -- 27° -- -- -- -- -- -- -- -- -- -- 52° -- -- -- -- -- -- -- -- 32° -- -- 61° -- -- 47° 56° -- -- 29° 47° -- -- 27° 56° -- -- 38° 67° --
TEMP 43° 41° 40° 38° 36° 34° 34° 31° 31° 31° 29° 29° 29° 29° 34° 38° 43° 45° 47° 49° 52° 52° 50° 47° 45° 41° 40° 38° 36° 34° 34° 34° 34° 50° 59° 59° 54° 49° 47° 56° 47° 34° 29° 47° 43° 31° 29° 54° 49° 40° 41° 63° 61°
SKY COVER 20% 17% 14% 10% 7% 4% 1% 1% 0% 0% 0% 0% 0% 1% 1% 1% 1% 0% 0% 0% 1% 1% 1% 2% 2% 3% 6% 7% 13% 25% 31% 63% 77% 64% 78% 82% 95% 92% 91% 94% 76% 49% 26% 11% 12% 12% 5% 5% 11% 17% 38% 32% 61%
Clouds
DEW PT 27° 27° 27° 27° 25° 25° 25° 23° 23° 22° 22° 22° 22° 22° 22° 22° 22° 23° 23° 23° 25° 25° 25° 25° 25° 25° 25° 25° 25° 25° 25° 25° 27° 31° 36° 40° 43° 43° 45° 47° 34° 20° 18° 18° 20° 22° 20° 29° 32° 32° 32° 38° 38°
RH 50% 57% 59% 64% 66% 66% 69% 72% 75% 72% 74% 78% 74% 74% 63% 52% 44% 42% 38% 35% 34% 33% 35% 40% 44% 50% 54% 58% 63% 66% 68% 68% 71% 47% 42% 47% 66% 83% 93% 71% 63% 56% 66% 32% 41% 66% 71% 37% 51% 76% 70% 39% 43%
POP 12HR 4% -- -- -- -- -- -- -- -- -- -- -- 0% -- -- -- -- -- -- -- -- -- -- -- 0% -- -- -- -- -- -- -- 8% -- -- -- 38% -- 80% -- 70% -- 9% -- 1% -- 0% -- 1% -- 3% -- 4%
RAIN/SNOW (liq.equ) 0.00in -- -- -- -- -- 0.00in -- -- -- -- -- 0.00in -- -- -- -- -- 0.00in -- -- -- -- -- 0.00in -- -- -- -- -- 0.00in -- 0.00in -- 0.00in -- 0.01in 0.01in 0.13in -- -- -- -- -- -- -- -- -- -- -- -- -- --
SNOWFALL 0in -- -- -- -- -- 0in -- -- -- -- -- 0in -- -- -- -- -- 0in -- -- -- -- -- 0in -- -- -- -- -- 0in -- 0in -- 0in -- 0in 0in 0in -- -- -- -- -- -- -- -- -- -- -- -- -- --
WIND SPEED(MPH) 8 7 7 7 7 6 6 5 5 5 2 2 1 2 2 2 2 1 1 1 1 1 1 1 1 1 2 2 2 5 5 2 5 7 8 9 7 7 7 9 14 10 10 9 7 7 6 2 5 6 7 13 8
WIND DIR NW NW NW NW NW NW NW NW N N N N N N N N N N N NW NW NW N NE E E E E E SE SE SE SE S SW SW S S SW N N NE NE NE NE NE E S S S S S S
HeatIndex 38 36 34 32 30 29 28 27 26 26 26 25 29 25 31 36 41 45 47 49 52 52 50 47 45 41 37 35 33 31 29 31 31 50 59 59 54 49 47 56 47 26 19 47 38 25 22 54 49 35 36 63 61
Rain Showers -- -- -- -- -- -- -- -- -- -- -- -- -- -- -- -- -- -- -- -- -- -- -- -- -- -- -- -- -- -- -- -- -- -- Chance Chance Chance Definite Likely Likely -- -- -- -- -- -- -- -- -- -- -- -- --
WIND CHILL 38° 36° 35° 33° 30° 29° 29° 26° 26° 26° -- -- -- -- -- -- -- -- -- -- -- -- -- -- -- -- -- -- -- 30° 30° -- 30° -- -- -- -- -- -- -- -- 26° 20° -- 39° 25° 23° -- -- 36° 36° -- --
SPRAY COND
DRY COND
LIVESTOCK COLDSTRESS

Click on individual weather variable above in left-hand column (ie., TEMP, RH, QPF 12HR) to view state forecast maps






NWS 48 Hr. Forecast Maps,

Regional Hourly Observations For SCOTT County, Kentucky
Issued at 100 PM EDT FRI MAR 22 2019
...CENTRAL KENTUCKY...
  
CITY           SKY/WX    TMP DP  RH WIND       PRES   REMARKS
MT STERLING*     N/A     52  36  54 W13G28    29.96F                  
FLEMING/MASON* CLOUDY    48  33  56 NW15      29.95R                  
DANVILLE*        N/A     54  34  47 NW15G24   30.01R                  
LEXINGTON        N/A     53  36  52 W18G25    29.97F                  
FRANKFORT        N/A     54  36  50 W14G24    29.98S                  
LOUISVILLE       N/A     57  34  41 W15G24    30.02S                  
LEBANON*         N/A     54  36  50 W14G26    30.02S                  
GLASGOW*         N/A     57  33  41 W14G22    30.06S                  
BOWLING GREEN    N/A     60  33  36 W14G23    30.07F                  


Current NOWCAST not available:
Nowcasts are not issued routinely during fair weather. Only when
precipitation or other significant weather is occuring in this county will these
forecasts be issued. Currently, there is no short term forecast in effect.


Fire Weather Forecast For SCOTT County, KY
Provided by the National Weather Service:

Issued at: Fri Mar 22 13:05:01 EDT 2019


                      Today        Tonight      Sat          

CLOUD COVER           PCldy        MClear       Clear        
PRECIP TYPE           None         None         None         
CHANCE PRECIP (%)     0            0            0            
TEMP (24H TREND)      52 (+2)      25 (-11)     54           
RH % (24H TREND)      42 (-30)     90 (0)       29           
20FTWND-VAL/AM(MPH)   W  9 G20                  Lgt/Var      
20FTWND-RDG/PM(MPH)   NW 13 G21    NW  7        Lgt/Var      
PRECIP AMOUNT         0.00         0.00         0.00         
MIXING HGT(FT-AGL/MSL)6178                      4499         
TRANSPORT WND (MPH)   NW 29                     NW  3        
VENT RATE (KT-FT)     160628                    24890        
DISPERSION            Excellent                 Poor         
DSI                   SLGT UNSTBL  SLGT UNSTBL  SLGT UNSTBL  
LAL                   1            1            1            
HAINES INDEX          2            3            4            
ADI EARLY             75 GOOD      27 FAIR      20 GEN POOR  
ADI LATE              97 GOOD      7 POOR       27 FAIR      
MAX LVORI EARLY       4            3            5            
MAX LVORI LATE        1            5            2            

REMARKS...ADI IS ATMOSPHERIC DISPERSION INDEX BY LAVDAS.        
LVORI IS LOW VISIBILITY OCCURRENCE RISK INDEX.

.SUNDAY...Partly cloudy. A 40 percent chance of rain showers.
Lows in the mid 30s. Highs in the lower 60s. East winds around
5 mph. 
.MONDAY...Rain showers likely. Lows in the upper 40s. Highs in
the upper 50s. South winds around 5 mph. 
.TUESDAY...Partly cloudy. Lows around 30. Highs in the upper 40s.
Northeast winds 5 to 10 mph. 
.WEDNESDAY...Mostly clear. Lows in the upper 20s. Highs in the
upper 50s. South winds around 5 mph. 
.THURSDAY...Mostly clear. Warmer. Lows in the upper 30s. Highs in
the upper 60s. South winds 5 to 10 mph. 

SPC's Fire Weather Web Tool (Excellent!), SPC's Fire Weather Outlooks, NWS Fire Weather WEB, Fire Danger Class Map,
Keetch-Byram Drought Index, ROMAN Web, Haines Index ,
WFAS's 10-hr Dead Fuel Moist., WFAS's 100-hr Dead Fuel Moist., Probablity of Ignition, Visual blackness Map, Palmer Drought Index, HPC's Rainfall Forecast Maps


Hazardous Weather Outlook For SCOTT County, Kentucky
428 AM EDT Fri Mar 22 2019 /328 AM CDT Fri Mar 22 2019/

 DAY ONE  Today and Tonight.

No hazardous weather is expected at this time.

 DAYS TWO THROUGH SEVEN  Saturday through Thursday.

No hazardous weather is expected at this time.

 SPOTTER INFORMATION STATEMENT  

Spotter activation will not be needed.

Latest SCOTT County, Kentucky Watches, Warnings and Advisories.
Additional Drought Info.: UKAWC Drought Page, Kentucky Drought Watch


7-Day Forecast For SCOTT County, KY

TODAY
Partly cloudy. Highs in the lower 50s. West winds 5 to 15 mph shifting to the northwest 15 to 20 mph in the afternoon.

TONIGHT
Clear. Lows in the mid 20s. Northwest winds 5 to 10 mph with gusts to around 25 mph.

SATURDAY
Sunny. Highs in the lower 50s. North winds up to 5 mph.

SATURDAY NIGHT
Mostly clear. Lows in the mid 30s. East winds up to 5 mph.

SUNDAY
Mostly cloudy with a 40 percent chance of rain showers. Highs in the lower 60s. South winds 5 to 10 mph.

SUNDAY NIGHT
Showers likely. Lows in the upper 40s. Chance of showers 70 percent.

MONDAY
Showers likely. Highs in the mid 50s. Chance of showers 70 percent.

MONDAY NIGHT
Partly cloudy. Lows in the upper 20s.

TUESDAY
Mostly sunny. Highs in the upper 40s.

TUESDAY NIGHT
Mostly clear. Lows in the upper 20s.

WEDNESDAY
Sunny. Highs in the mid 50s.

WEDNESDAY NIGHT
Mostly clear. Lows in the upper 30s.

THURSDAY
Partly cloudy. Highs in the upper 60s.

Ag Weather Center, Department of Biosystems & Agricultural Engineering, University of Kentucky